Time,TemperatureF,DewpointF,PressureIn,WindDirection,WindDirectionDegrees,WindSpeedMPH,WindSpeedGustMPH,Humidity,HourlyPrecipIn,Conditions,Clouds,dailyrainin,SoftwareType,DateUTC
2013-11-01 00:24:00,59.0,57.0,29.80,SW,226,3.0,10.0,92,0.00,,,0.15,,2013-11-01 04:24:00,
2013-11-01 00:54:00,60.0,58.0,29.77,SSW,207,3.0,12.0,92,0.01,,,0.16,,2013-11-01 04:54:00,
2013-11-01 01:23:00,61.0,59.0,29.75,SW,220,3.0,10.0,92,0.01,,,0.16,,2013-11-01 05:23:00,
2013-11-01 01:53:00,62.0,59.0,29.73,SSW,206,8.0,19.0,91,0.00,,,0.16,,2013-11-01 05:53:00,
2013-11-01 02:22:00,62.0,58.0,29.73,SSW,207,4.0,24.0,88,0.01,,,0.17,,2013-11-01 06:22:00,
2013-11-01 02:52:00,61.0,56.0,29.70,WSW,240,4.0,14.0,84,0.01,,,0.17,,2013-11-01 06:52:00,
2013-11-01 03:22:00,61.0,56.0,29.69,SSW,194,1.0,11.0,83,0.01,,,0.18,,2013-11-01 07:22:00,
2013-11-01 03:52:00,61.0,56.0,29.68,WSW,250,6.0,17.0,85,0.01,,,0.18,,2013-11-01 07:52:00,
2013-11-01 04:22:00,61.0,56.0,29.65,SSE,158,3.0,15.0,85,0.00,,,0.18,,2013-11-01 08:22:00,
2013-11-01 04:52:00,62.0,57.0,29.65,SSW,202,2.0,12.0,85,0.00,,,0.18,,2013-11-01 08:52:00,
2013-11-01 05:21:00,62.0,57.0,29.63,SSW,198,4.0,12.0,84,0.00,,,0.18,,2013-11-01 09:21:00,
2013-11-01 05:53:00,62.0,57.0,29.62,SW,214,4.0,16.0,84,0.00,,,0.18,,2013-11-01 09:53:00,
2013-11-01 06:23:00,63.0,57.0,29.59,South,190,7.0,17.0,82,0.00,,,0.18,,2013-11-01 10:23:00,
2013-11-01 06:52:00,64.0,57.0,29.59,SSW,203,11.0,22.0,79,0.00,,,0.18,,2013-11-01 10:52:00,
2013-11-01 07:22:00,65.0,58.0,29.56,SSW,192,10.0,20.0,78,0.00,,,0.18,,2013-11-01 11:22:00,
2013-11-01 07:52:00,66.0,59.0,29.55,South,189,3.0,21.0,77,0.00,,,0.18,,2013-11-01 11:52:00,
2013-11-01 08:22:00,67.0,59.0,29.56,South,186,8.0,26.0,75,0.00,,,0.18,,2013-11-01 12:22:00,
2013-11-01 08:42:00,67.0,58.0,29.56,South,184,10.0,17.0,74,0.00,,,0.18,,2013-11-01 12:42:00,
2013-11-01 08:52:00,68.0,59.0,29.57,SSW,210,10.0,21.0,74,0.00,,,0.18,,2013-11-01 12:52:00,
2013-11-01 09:12:00,68.0,59.0,29.57,SSW,207,10.0,25.0,72,0.00,,,0.18,,2013-11-01 13:12:00,
2013-11-01 09:22:00,68.0,59.0,29.56,SSW,200,8.0,25.0,73,0.00,,,0.18,,2013-11-01 13:22:00,
2013-11-01 09:52:00,67.0,59.0,29.54,West,267,7.0,22.0,75,0.00,,,0.18,,2013-11-01 13:52:00,
2013-11-01 10:22:00,67.0,58.0,29.52,WSW,254,10.0,26.0,74,0.00,,,0.18,,2013-11-01 14:22:00,
2013-11-01 10:52:00,65.0,60.0,29.51,WSW,256,7.0,23.0,84,0.02,,,0.20,,2013-11-01 14:52:00,
2013-11-01 11:22:00,66.0,60.0,29.49,WSW,239,7.0,26.0,81,0.02,,,0.20,,2013-11-01 15:22:00,
2013-11-01 11:44:00,65.0,60.0,29.49,SW,220,11.0,24.0,84,0.01,,,0.20,,2013-11-01 15:44:00,
2013-11-01 11:54:00,65.0,60.0,29.48,SW,229,14.0,31.0,85,0.02,,,0.22,,2013-11-01 15:54:00,
2013-11-01 12:23:00,64.0,60.0,29.51,WSW,247,8.0,20.0,88,0.09,,,0.28,,2013-11-01 16:23:00,
2013-11-01 12:43:00,64.0,59.0,29.52,SW,225,6.0,19.0,83,0.09,,,0.28,,2013-11-01 16:43:00,
2013-11-01 12:53:00,64.0,57.0,29.52,SW,235,7.0,19.0,77,0.07,,,0.28,,2013-11-01 16:53:00,
2013-11-01 13:12:00,64.0,56.0,29.52,SW,227,6.0,17.0,74,0.00,,,0.28,,2013-11-01 17:12:00,
2013-11-01 13:22:00,64.0,54.0,29.50,West,268,4.0,18.0,71,0.00,,,0.28,,2013-11-01 17:22:00,
2013-11-01 13:52:00,64.0,54.0,29.47,SSW,207,5.0,16.0,69,0.00,,,0.28,,2013-11-01 17:52:00,
2013-11-01 14:12:00,64.0,54.0,29.49,South,171,9.0,19.0,69,0.00,,,0.28,,2013-11-01 18:12:00,
2013-11-01 14:22:00,64.0,54.0,29.49,South,171,9.0,19.0,69,0.00,,,0.28,,2013-11-01 18:22:00,
2013-11-01 14:52:00,65.0,55.0,29.47,SSE,162,5.0,18.0,69,0.00,,,0.28,,2013-11-01 18:52:00,
2013-11-01 15:22:00,65.0,55.0,29.47,SSW,207,7.0,17.0,69,0.00,,,0.28,,2013-11-01 19:22:00,
2013-11-01 15:52:00,65.0,53.0,29.47,SW,219,7.0,16.0,65,0.00,,,0.28,,2013-11-01 19:52:00,
2013-11-01 16:12:00,65.0,53.0,29.47,SW,236,5.0,13.0,65,0.00,,,0.28,,2013-11-01 20:12:00,
2013-11-01 16:22:00,65.0,53.0,29.48,South,182,3.0,15.0,64,0.00,,,0.28,,2013-11-01 20:22:00,
2013-11-01 16:42:00,65.0,52.0,29.49,South,191,7.0,13.0,62,0.00,,,0.23,,2013-11-01 20:42:00,
2013-11-01 16:52:00,65.0,52.0,29.48,SW,216,3.0,10.0,62,0.00,,,0.23,,2013-11-01 20:52:00,
2013-11-01 17:22:00,64.0,52.0,29.49,WSW,247,5.0,14.0,64,0.00,,,0.23,,2013-11-01 21:22:00,
2013-11-01 17:43:00,63.0,51.0,29.49,SSW,205,1.0,11.0,66,0.00,,,0.17,,2013-11-01 21:43:00,
2013-11-01 17:55:00,63.0,52.0,29.49,SW,233,2.0,15.0,67,0.00,,,0.17,,2013-11-01 21:55:00,
2013-11-01 18:24:00,63.0,53.0,29.50,SW,235,3.0,13.0,69,0.00,,,0.17,,2013-11-01 22:24:00,
2013-11-01 18:42:00,62.0,52.0,29.50,South,184,3.0,8.0,69,0.00,,,0.17,,2013-11-01 22:42:00,
2013-11-01 18:53:00,62.0,52.0,29.51,SW,226,3.0,7.0,71,0.00,,,0.17,,2013-11-01 22:53:00,
2013-11-01 19:22:00,61.0,52.0,29.52,SSW,210,4.0,11.0,73,0.00,,,0.17,,2013-11-01 23:22:00,
2013-11-01 19:53:00,61.0,53.0,29.54,SSW,192,5.0,17.0,74,0.00,,,0.17,,2013-11-01 23:53:00,
2013-11-01 20:22:00,60.0,52.0,29.55,SW,217,5.0,10.0,76,0.00,,,0.17,,2013-11-02 00:22:00,
2013-11-01 20:42:00,60.0,53.0,29.55,SSW,213,1.0,13.0,77,0.00,,,0.17,,2013-11-02 00:42:00,
2013-11-01 20:52:00,59.0,52.0,29.57,SW,219,1.0,12.0,77,0.00,,,0.17,,2013-11-02 00:52:00,
2013-11-01 21:22:00,59.0,52.0,29.57,SW,226,5.0,9.0,79,0.00,,,0.17,,2013-11-02 01:22:00,
2013-11-01 21:42:00,59.0,52.0,29.58,SW,215,0.0,14.0,78,0.00,,,0.17,,2013-11-02 01:42:00,
2013-11-01 21:52:00,59.0,52.0,29.59,SW,219,1.0,9.0,79,0.00,,,0.17,,2013-11-02 01:52:00,
2013-11-01 22:22:00,58.0,52.0,29.59,SSW,205,2.0,9.0,79,0.00,,,0.17,,2013-11-02 02:22:00,
2013-11-01 22:42:00,58.0,52.0,29.59,WSW,240,2.0,9.0,79,0.00,,,0.17,,2013-11-02 02:42:00,
2013-11-01 22:52:00,58.0,52.0,29.60,SSW,208,0.0,7.0,79,0.00,,,0.17,,2013-11-02 02:52:00,
2013-11-01 23:22:00,57.0,51.0,29.62,SW,219,2.0,6.0,81,0.00,,,0.17,,2013-11-02 03:22:00,
2013-11-01 23:44:00,57.0,52.0,29.63,West,259,2.0,6.0,82,0.00,,,0.14,,2013-11-02 03:44:00,
2013-11-01 23:53:00,56.0,51.0,29.64,NNW,331,0.0,0.0,83,0.00,,,0.14,,2013-11-02 03:53:00,